Regional Weather Roundup
Issued by NWS

Home | Current Version | Previous Version | Graphics & Text | Print | Product List | Glossary On
Versions: 1 2 3 4 5 6 7 8 9 10 11 12 13 14 15 16 17 18 19 20 21 22 23 24 25 26 27 28 29 30 31 32 33 34 35 36 37 38 39 40 41 42 43 44 45 46 47 48 49 50
000
ASUS45 KSLC 281810
RWRUT

UTAH REGIONAL WEATHER ROUNDUP
NATIONAL WEATHER SERVICE SALT LAKE CITY UT
1100 AM MST WED JAN 28 2015

UTZ001>011-023>025-281900-

NORTHERN UTAH

CITY           SKY/WX    TMP DP  RH WIND       PRES   REMARKS
BRIGHAM CITY   CLOUDY    43  38  82 CALM      30.32R
HILL AFB       CLOUDY    43  32  65 CALM      30.31R
LOGAN          CLOUDY    40  37  89 CALM      30.29R
OGDEN          CLOUDY    44  37  76 CALM      30.31R
PROVO AIRPORT  CLOUDY    45  36  70 CALM      30.31R
SALT LAKE CITY PTSUNNY   45  39  79 N3        30.31R
VERNAL         SUNNY     41  29  62 VRB3      30.28R
WENDOVER       CLOUDY    39  32  75 N5        30.33R
HEBER CITY     CLOUDY    39  34  81 CALM      30.30R
WEST JORDAN    CLOUDY    46  39  76 CALM      30.32R

$$

UTZ012>022-026-027-281900-

SOUTHERN/CENTRAL UTAH

CITY           SKY/WX    TMP DP  RH WIND       PRES   REMARKS
BLANDING       MOSUNNY   45  36  68 SE5       30.38R
BRYCE CANYON   MOSUNNY   37  29  72 N3        30.32S
CEDAR CITY     MOSUNNY   45  34  65 CALM      30.29F
DELTA          MOSUNNY   45  36  68 S3        30.32R
MILFORD        SUNNY     46  38  73 SW12      30.30R
MOAB/CYNLANDS  SUNNY     44  33  65 CALM      30.29S
PRICE          CLOUDY    44  31  60 SE3       30.29S
ST GEORGE      MOCLDY    46  39  76 CALM      30.33S
KANAB          MOSUNNY   43  37  81 CALM      30.35F

$$

REGIONAL REPORTS     COLORADO/ARIZONA

CITY           SKY/WX    TMP DP  RH WIND       PRES   REMARKS
CRAIG, CO      CLOUDY    39  33  79 CALM      30.27R
GRAND JUNCTION SUNNY     43  30  60 CALM      30.30F
RIFLE          MOSUNNY   39  29  67 CALM      30.31S
MONTROSE       SUNNY     45  31  58 CALM      30.32F
CORTEZ         MOSUNNY   50  35  56 VRB3      30.31S
PAGE, AZ       NOT AVBL
GRAND CANYON   MOSUNNY   46  32  58 CALM      30.32S
KINGMAN        PTSUNNY   52  47  83 N7        30.25F
FLAGSTAFF      MOSUNNY   44  34  67 VRB3      30.32S

$$

REGIONAL REPORTS    NEVADA/IDAHO/WYOMING

CITY           SKY/WX    TMP DP  RH WIND       PRES   REMARKS
LAS VEGAS, NV  PTSUNNY   57  44  62 CALM      30.24R
ELY            PTSUNNY   42  33  70 W7        30.33R
ELKO           SUNNY     45  37  73 SW8       30.34R
POCATELLO, ID  CLOUDY    37  37 100 SW15      30.32R FOG     WCI  28
BURLEY         CLOUDY    40  37  89 W6        30.31R
EVANSTON, WY   CLOUDY    36  31  82 SW12      30.28R WCI  28
ROCK SPRINGS   MOSUNNY   38  30  73 W24       30.22S WCI  27
KEMMERER       CLOUDY    34  32  93 W15       30.26R WCI  24

$$



USA.gov is the U.S. government's official web portal to all federal, state and local government web resources and services.